Location: Babice
(50.3480°N, 22.9363°E)
Time: 12:12:53
(UTC+00:00)

Meteor 2-4 Rocket - Pass Details

Date: 14 July 2020
Orbit: 799 x 908 km, 81.2° (Epoch: 07 August)

Event Time Altitude Azimuth Distance (km) Brightness Sun altitude
Rises 00:13:07 0° 346° (NNW) 3,550 7.8 -14.8°
Reaches altitude 10° 00:15:36 10° 345° (NNW) 2,605 7.0 -14.6°
Maximum altitude 00:21:33 77° 261° (W) 933 3.8 -14.2°
Enters shadow 00:26:30 15° 177° (S) 2,224 5.4 -13.9°
